Weather in Nikolaevka

Ukraine / Odesa District     47°32′20″N   30°45′10″E
temp.,
°C
wind,
m/s
gust,
m/s
humid.,
%
clouds,
%
prec.,
mm/h
press.,
hPa
HPBL,
m
22 january, fri
fri2223:00−1ssw49930 0.0 1021155
02:00−1s47893 0.0 1020130
05:00−1s479022 0.0 1019116
08:00−1s479147 0.0 1018112
11:00+3ssw498180 0.0 1018291
14:00+5ssw597890 0.0 1016351
17:00+2s478861 0.0 101699
20:00+2sse5109481 0.0 1015180
23 january, sat
sat2323:00+2s5119691 0.0 1014257
02:00+1s499065 0.0 1013177
05:00+2s5109858 0.0 1013218
08:00+4s5109976 0.0 1013240
11:00+6s5108255 0.0 1012379
14:00+8s598428 0.0 1011384
17:00+5sse5109782 0.0 1010195
20:00+4sse5109591 0.0 1010207
24 january, sun
sun2423:00+6s7169396 0.0 1009435
02:00+6s8199098 0.0 1009577
05:00+7s91787100 0.1 1007686
08:00+8sse101983100 0.6 1006847
11:00+8s121991100 1.3 1004928
14:00+9s101585100 1.6 1003916
17:00+7s7139148 0.0 1004367
20:00+6sse6129636 0.1 1005286
25 january, mon
mon2523:00+7sse61197100 0.8 1004291
02:00+5s499170 0.8 1005186
05:00+4sse36919 0.0 1004102
08:00+5sse6119850 0.0 1004294
11:00+8sse61396100 0.3 1003530
14:00+8sse101894100 3.1 999869
17:00+8sse121992100 3.6 996915
20:00+8sse91791100 7.0 994710
26 january, tue
tue2623:00+4s101768100 0.1 994941
02:00+3ssw11178492 0.2 9951149
05:00+2sw81379100 0.3 995970
08:00+1ssw91387100 0.5 998844
11:00+2wsw131974100 0.4 10011602
14:00+3w121860100 0.5 10041672
17:00+2wsw7166068 0.0 1008895
20:00+1wsw7165743 0.0 1010581